Hourly Weather Bolshoe Bizyukino

Today, 24 July, Saturday

Time Temperature Precipitation Wind Pressure Humidity
00:00 +14°C° 0 mm 2 mps 740 mmHg 79%
01:00 +14°C° 0 mm 2 mps 740 mmHg 78%
02:00 +14°C° 0 mm 2 mps 740 mmHg 80%
03:00 +14°C° 0 mm 2 mps 740 mmHg 80%
04:00 +14°C° 0 mm 2 mps 740 mmHg 80%
05:00 +14°C° 0 mm 2 mps 741 mmHg 81%
06:00 +15°C° 0 mm 2 mps 741 mmHg 77%
07:00 +16°C° 0 mm 2 mps 741 mmHg 73%
08:00 +17°C° 0 mm 3 mps 742 mmHg 69%
09:00 +17°C° 0 mm 3 mps 742 mmHg 66%
10:00 +18°C° 0 mm 3 mps 742 mmHg 62%
11:00 +19°C° 0 mm 3 mps 742 mmHg 59%
12:00 +20°C° 0 mm 3 mps 743 mmHg 53%
13:00 +20°C° 0 mm 3 mps 743 mmHg 47%
14:00 +21°C° 0 mm 3 mps 743 mmHg 43%
15:00 +21°C° 0 mm 2 mps 743 mmHg 47%
16:00 +20°C° 0 mm 2 mps 743 mmHg 50%
17:00 +19°C° 0 mm 2 mps 744 mmHg 53%
18:00 +19°C° 0 mm 2 mps 744 mmHg 53%
19:00 +18°C° 0 mm 2 mps 744 mmHg 53%
20:00 +18°C° 0 mm 1 mps 745 mmHg 53%
21:00 +18°C° 0 mm 1 mps 745 mmHg 55%
22:00 +16°C° 0 mm 1 mps 745 mmHg 56%
23:00 +16°C° 0 mm 1 mps 745 mmHg 57%

Tomorrow, 25 July, Sunday

Time Temperature Precipitation Wind Pressure Humidity
00:00 +15°C° 0 mm 1 mps 746 mmHg 59%
01:00 +14°C° 0 mm 0 mps 746 mmHg 61%
02:00 +14°C° 0 mm 0 mps 746 mmHg 62%
03:00 +14°C° 0 mm 0 mps 746 mmHg 63%
04:00 +14°C° 0 mm 0 mps 747 mmHg 65%
05:00 +14°C° 0 mm 0 mps 747 mmHg 66%
06:00 +15°C° 0 mm 0 mps 747 mmHg 61%
07:00 +17°C° 0 mm 0 mps 747 mmHg 56%
08:00 +18°C° 0 mm 0 mps 748 mmHg 52%
09:00 +20°C° 0 mm 0 mps 748 mmHg 47%
10:00 +23°C° 0 mm 1 mps 748 mmHg 43%
11:00 +24°C° 0 mm 1 mps 748 mmHg 39%
12:00 +24°C° 0 mm 1 mps 748 mmHg 39%
13:00 +24°C° 0 mm 1 mps 748 mmHg 39%
14:00 +24°C° 0 mm 1 mps 748 mmHg 40%
15:00 +24°C° 0 mm 1 mps 748 mmHg 41%
16:00 +24°C° 0 mm 1 mps 748 mmHg 43%
17:00 +24°C° 0 mm 1 mps 748 mmHg 44%
18:00 +21°C° 0 mm 2 mps 748 mmHg 48%
19:00 +20°C° 0 mm 2 mps 748 mmHg 52%
20:00 +18°C° 0 mm 2 mps 748 mmHg 56%
21:00 +18°C° 0 mm 2 mps 749 mmHg 57%
22:00 +17°C° 0 mm 2 mps 749 mmHg 57%
23:00 +16°C° 0 mm 2 mps 749 mmHg 58%

Day after tomorrow, 26 July, Monday

Time Temperature Precipitation Wind Pressure Humidity
00:00 +17°C° 0 mm 2 mps 749 mmHg 58%
01:00 +17°C° 0 mm 2 mps 749 mmHg 58%
02:00 +17°C° 0 mm 2 mps 749 mmHg 58%
03:00 +17°C° 0 mm 2 mps 749 mmHg 59%
04:00 +18°C° 0 mm 1 mps 749 mmHg 60%
05:00 +18°C° 0 mm 1 mps 750 mmHg 62%
06:00 +19°C° 0 mm 1 mps 750 mmHg 60%
07:00 +19°C° 0 mm 2 mps 750 mmHg 58%
08:00 +20°C° 0 mm 2 mps 750 mmHg 56%
09:00 +21°C° 0 mm 2 mps 750 mmHg 54%
10:00 +23°C° 0 mm 2 mps 750 mmHg 51%
11:00 +24°C° 0 mm 2 mps 750 mmHg 49%
12:00 +25°C° 0 mm 2 mps 750 mmHg 45%
13:00 +26°C° 0 mm 2 mps 750 mmHg 41%
14:00 +27°C° 0 mm 2 mps 749 mmHg 38%
15:00 +26°C° 0 mm 2 mps 749 mmHg 44%
16:00 +24°C° 0 mm 2 mps 749 mmHg 50%
17:00 +23°C° 0 mm 2 mps 749 mmHg 57%
18:00 +21°C° 0 mm 2 mps 749 mmHg 62%
19:00 +20°C° 0 mm 2 mps 749 mmHg 67%
20:00 +19°C° 0 mm 2 mps 749 mmHg 72%
21:00 +19°C° 0 mm 2 mps 749 mmHg 71%
22:00 +20°C° 0 mm 1 mps 749 mmHg 71%
23:00 +19°C° 0 mm 1 mps 750 mmHg 71%

27 July, Tuesday

Time Temperature Precipitation Wind Pressure Humidity
00:00 +18°C° 0 mm 1 mps 750 mmHg 74%
01:00 +18°C° 0 mm 1 mps 749 mmHg 78%
02:00 +16°C° 0 mm 1 mps 749 mmHg 81%
03:00 +16°C° 0 mm 1 mps 750 mmHg 81%
04:00 +16°C° 0 mm 1 mps 750 mmHg 80%
05:00 +16°C° 0 mm 0 mps 750 mmHg 80%
06:00 +18°C° 0 mm 0 mps 750 mmHg 73%
07:00 +20°C° 0 mm 0 mps 750 mmHg 65%
08:00 +22°C° 0 mm 0 mps 750 mmHg 58%
09:00 +23°C° 0 mm 0 mps 750 mmHg 52%
10:00 +25°C° 0 mm 0 mps 749 mmHg 47%
11:00 +26°C° 0 mm 0 mps 749 mmHg 41%
12:00 +29°C° 0 mm 1 mps 749 mmHg 40%
13:00 +29°C° 0 mm 1 mps 749 mmHg 38%
14:00 +29°C° 0 mm 1 mps 748 mmHg 37%
15:00 +29°C° 0 mm 1 mps 748 mmHg 40%
16:00 +28°C° 0 mm 2 mps 748 mmHg 43%
17:00 +28°C° 0 mm 2 mps 748 mmHg 47%
18:00 +26°C° 0 mm 2 mps 748 mmHg 52%
19:00 +24°C° 0 mm 1 mps 748 mmHg 57%
20:00 +22°C° 0 mm 1 mps 748 mmHg 62%
21:00 +22°C° 0 mm 1 mps 748 mmHg 65%
22:00 +21°C° 0 mm 1 mps 748 mmHg 68%
23:00 +20°C° 0 mm 1 mps 748 mmHg 70%

28 July, Wednesday

Time Temperature Precipitation Wind Pressure Humidity
00:00 +19°C° 0 mm 1 mps 747 mmHg 73%
01:00 +19°C° 0 mm 1 mps 747 mmHg 75%
02:00 +18°C° 0 mm 1 mps 747 mmHg 78%
03:00 +19°C° 0 mm 1 mps 747 mmHg 77%
04:00 +19°C° 0 mm 1 mps 747 mmHg 77%
05:00 +19°C° 0 mm 1 mps 747 mmHg 76%
06:00 +20°C° 0 mm 2 mps 747 mmHg 69%
07:00 +24°C° 0 mm 2 mps 746 mmHg 62%
08:00 +26°C° 0 mm 2 mps 746 mmHg 56%
09:00 +27°C° 0 mm 3 mps 746 mmHg 51%
10:00 +28°C° 0 mm 3 mps 746 mmHg 46%
11:00 +29°C° 0 mm 3 mps 745 mmHg 42%
12:00 +29°C° 0 mm 3 mps 745 mmHg 42%
13:00 +29°C° 0 mm 3 mps 744 mmHg 42%
14:00 +29°C° 0 mm 3 mps 744 mmHg 42%
15:00 +28°C° 0.1 mm 4 mps 744 mmHg 49%
16:00 +26°C° 0.1 mm 5 mps 744 mmHg 56%
17:00 +25°C° 0.1 mm 5 mps 744 mmHg 63%
18:00 +22°C° 0.1 mm 4 mps 743 mmHg 69%
19:00 +20°C° 0.1 mm 4 mps 743 mmHg 76%
20:00 +19°C° 0.1 mm 3 mps 743 mmHg 82%
21:00 +18°C° 0 mm 3 mps 743 mmHg 85%
22:00 +17°C° 0 mm 2 mps 742 mmHg 88%
23:00 +17°C° 0 mm 2 mps 742 mmHg 91%

29 July, Thursday

Time Temperature Precipitation Wind Pressure Humidity
00:00 +17°C° 0 mm 2 mps 742 mmHg 92%
01:00 +17°C° 0 mm 2 mps 741 mmHg 92%
02:00 +18°C° 0 mm 2 mps 741 mmHg 92%
03:00 +18°C° 0.1 mm 2 mps 741 mmHg 93%
04:00 +18°C° 0.1 mm 3 mps 740 mmHg 94%
05:00 +18°C° 0.1 mm 3 mps 740 mmHg 95%
06:00 +19°C° 0 mm 3 mps 740 mmHg 91%
07:00 +20°C° 0 mm 3 mps 740 mmHg 87%
08:00 +21°C° 0 mm 3 mps 739 mmHg 83%
09:00 +21°C° 0 mm 3 mps 739 mmHg 79%
10:00 +22°C° 0 mm 3 mps 739 mmHg 75%
11:00 +24°C° 0 mm 2 mps 739 mmHg 70%
12:00 +24°C° 0.1 mm 2 mps 739 mmHg 70%
13:00 +24°C° 0.1 mm 2 mps 738 mmHg 70%
14:00 +24°C° 0.1 mm 2 mps 738 mmHg 69%
15:00 +24°C° 0.2 mm 2 mps 738 mmHg 72%
16:00 +24°C° 0.2 mm 2 mps 738 mmHg 76%
17:00 +23°C° 0.2 mm 2 mps 738 mmHg 79%
18:00 +21°C° 0.6 mm 2 mps 738 mmHg 84%
19:00 +20°C° 0.6 mm 2 mps 738 mmHg 89%
20:00 +19°C° 0.6 mm 2 mps 738 mmHg 94%
21:00 +19°C° 0.4 mm 2 mps 737 mmHg 94%
22:00 +18°C° 0.4 mm 2 mps 737 mmHg 95%
23:00 +18°C° 0.4 mm 2 mps 737 mmHg 95%
Show more